User: anonymous   Login
Location: ??????
(30.5519°N, 47.7720°E)
Time: 03:43:02
(UTC+00:00)
Language:

USA 229 - Orbit

View from above orbital plane
View from above orbital plane
View from above satellite
View from above satellite

Ground track
Ground track

The orbit data is extracted from the following two-line orbital elements,

1 37386U 11014A   21105.89795419 0.00000000  00000-0  00000-0 0    08
2 37386  63.4444  56.1548 0197972 358.0698   1.9302 13.40820163    00
Epoch (UTC): 15 April 2021 21:33:03
Eccentricity: 0.0197972
inclination: 63.4444°
perigee height: 958 km
apogee height: 1254 km
right ascension of ascending node: 56.1548°
argument of perigee: 358.0698°
revolutions per day: 13.40820163
mean anomaly at epoch: 1.9302°
orbit number at epoch: 0

The dashed part of the orbit path shows where the satellite is in the earth's shadow,  

DLR